Regional Weather Roundup
Issued by NWS

Home | Current Version | Previous Version | Text Only | Print | Product List | Glossary Off
Versions: 1 2 3 4 5 6 7 8 9 10 11 12 13 14 15 16 17 18 19 20 21 22 23 24 25 26 27 28

000
ASUS45 KCYS 230110
RWRWY

WYOMING REGIONAL WEATHER ROUNDUP
NATIONAL WEATHER SERVICE CHEYENNE WY
700 PM MDT SUN OCT 22 2017

NOTE:  "FAIR" INDICATES FEW OR NO CLOUDS BELOW 12,000 FEET
WITH NO SIGNIFICANT WEATHER AND/OR OBSTRUCTIONS TO VISIBILITY.

WYZ001-230200-
YELLOWSTONE NATIONAL PARK

CITY           SKY/WX    TMP DP  RH WIND       PRES   REMARKS
LK YELLOWSTONE   N/A     36  35  96 VRB6      30.22R WCI  31
W YELLOWSTONE  NOT AVBL

$$
WYZ002>013-054>058-071-098>099-230200-
NORTHERN WYOMING

CITY           SKY/WX    TMP DP  RH WIND       PRES   REMARKS
JACKSON        CLOUDY    48  33  56 SW23G33   30.27R
CODY           FAIR      54  34  46 SW21G32   30.02R
GREYBULL       FAIR      59  33  37 W14       29.97R
WORLAND        FAIR      45  33  63 SE3       29.99R
SHERIDAN       CLOUDY    59  36  42 NW24G35   29.95R
BUFFALO        FAIR      61  23  23 W33G45    29.94R
GILLETTE         N/A    N/A N/A N/A MISG      29.92R
HULETT         MOCLDY    63  28  27 W10G16    29.91R
NEWCASTLE      FAIR      54  28  37 NW7       29.93R

$$
WYZ014>020-022>026-101>103-230200-
CENTRAL WYOMING

CITY           SKY/WX    TMP DP  RH WIND       PRES   REMARKS
BIG PINEY      FAIR      41  29  62 W12       30.31R
PINEDALE       FAIR      43  30  61 NW8       30.32R
DUBOIS         FAIR      43  28  56 W28G41    30.15F
LANDER         FAIR      57  29  34 W18G26    30.07R
RIVERTON       FAIR      54  29  38 W15       30.08R
CASPER         CLOUDY    53  28  38 SW14      30.07R
DOUGLAS        FAIR      59  28  30 W21       30.00R

$$
WYZ021-027>030-104>119-230200-
SOUTHERN WYOMING

CITY           SKY/WX    TMP DP  RH WIND       PRES   REMARKS
EVANSTON       CLOUDY    51  27  39 SW15      30.40F
KEMMERER       MOCLDY    46  27  46 W22G28    30.36S
FORT BRIDGER   FAIR      51  24  34 W21G31    30.38S
ROCK SPRINGS   CLOUDY    51  23  33 W17G26    30.34R
DIXON          MOCLDY    51  28  40 S14G22    30.34S
RAWLINS        FAIR      53  27  36 W32G44    30.22R
SARATOGA       FAIR      50  27  40 SW12G18   30.28R
LARAMIE        FAIR      51  25  36 W29G38    30.15F
CHEYENNE       FAIR      56  24  29 W16G26    30.14R
TORRINGTON     FAIR      62  26  25 W23G32    29.98S
PINE BLUFFS    FAIR      57  27  30 W8G20     30.08S

$$




USA.gov is the U.S. government's official web portal to all federal, state and local government web resources and services.